Weather History for KLRD - April, 2013

Change the Weather History Date:

Tuesday, April 16, 2013

  Actual Average Record
Temperature  
Mean Temperature 84 °F 76 °F  
Max Temperature 96 °F 88 °F 104 °F (1927)
Min Temperature 72 °F 64 °F 43 °F (1983)
Degree Days  
Heating Degree Days 0 0  
Month to date heating degree days 0 12  
Since 1 July heating degree days 513 925  
Cooling Degree Days 19 11  
Month to date cooling degree days 191 161  
Year to date cooling degree days 560 419  
Growing Degree Days 34 (Base 50)    
Moisture  
Dew Point 67 °F    
Average Humidity 61    
Maximum Humidity 84    
Minimum Humidity 33    
Precipitation  
Precipitation 0.00 in 0.05 in 2.15 in (1979)
Month to date precipitation 0.01 0.62  
Year to date precipitation 0.76 3.58  
Sea Level Pressure  
Sea Level Pressure 29.73 in    
Wind  
Wind Speed 14 mph (SE)    
Max Wind Speed 25 mph    
Max Gust Speed 29 mph    
Visibility 8 miles    
Events      
T = Trace of Precipitation, MM = Missing Value Source: NWS Daily Summary

Daily Weather History Graph

Daily Weather History Graph

Search for Another Location

Airport or City:

Trip Planner

Search our weather history database for the weather conditions in past years. The results will help you decide how hot, cold, wet, or windy it might be!

Date:

Astronomy

Apr. 16, 2013 Rise Set
Actual Time 7:12 AM CDT 8:03 PM CDT
Civil Twilight 6:48 AM CDT 8:27 PM CDT
Nautical Twilight 6:19 AM CDT 8:55 PM CDT
Astronomical Twilight 5:50 AM CDT 9:24 PM CDT
Moon 11:45 AM CDT (4/16) 12:48 AM CDT (4/16)
Length of Visible Light 13h 39m
Length of Day
12h 51m
Waxing Crescent, 33% of the Moon is Illuminated
Apr 16
Waxing Crescent
Apr 18
First Quarter
Apr 25
Full
May 2
Last Quarter
May 9
New

Hourly Weather History & Observations

Time (CDT) Temp. Heat Index Dew Point Humidity Pressure Visibility Wind Dir Wind Speed Gust Speed Precip Events Conditions
12:56 AM 77.9 °F - 65.8 °F 66% 29.73 in 8.0 mi SE 13.8 mph - N/A   Clear
1:56 AM 77.0 °F - 63.9 °F 64% 29.73 in 8.0 mi SSE 16.1 mph - N/A   Clear
2:56 AM 74.8 °F - 64.9 °F 71% 29.71 in 7.0 mi SSE 16.1 mph - N/A   Clear
3:56 AM 73.9 °F - 65.8 °F 76% 29.70 in 6.0 mi SSE 11.5 mph - N/A   Haze
4:56 AM 73.9 °F - 65.8 °F 76% 29.70 in 6.0 mi SSE 12.7 mph - N/A   Haze
5:56 AM 73.9 °F - 66.9 °F 79% 29.72 in 6.0 mi SE 6.9 mph - N/A   Haze
6:56 AM 72.0 °F - 66.9 °F 84% 29.73 in 6.0 mi East 5.8 mph - N/A   Haze
7:56 AM 72.9 °F - 66.9 °F 82% 29.75 in 4.0 mi East 6.9 mph - 0.00 in   Haze
8:56 AM 75.9 °F - 66.9 °F 74% 29.77 in 6.0 mi ESE 10.4 mph - N/A   Haze
9:56 AM 79.9 °F - 65.8 °F 62% 29.78 in 9.0 mi SSE 12.7 mph - N/A   Clear
10:56 AM 82.9 °F 85.4 °F 66.9 °F 58% 29.79 in 9.0 mi SSE 13.8 mph - N/A   Clear
11:56 AM 86.9 °F 88.9 °F 65.8 °F 49% 29.78 in 10.0 mi SSE 15.0 mph 19.6 mph N/A   Clear
12:56 PM 90.9 °F 92.7 °F 64.9 °F 42% 29.75 in 10.0 mi SE 15.0 mph - N/A   Clear
1:56 PM 92.8 °F 95.2 °F 64.9 °F 40% 29.73 in 10.0 mi SE 15.0 mph - N/A   Unknown
2:56 PM 95.0 °F 95.6 °F 61.9 °F 33% 29.70 in 10.0 mi SSE 20.7 mph - N/A   Clear
3:56 PM 95.0 °F 97.4 °F 64.9 °F 37% 29.69 in 10.0 mi SSE 19.6 mph 26.5 mph N/A   Clear
4:56 PM 95.0 °F 97.4 °F 64.9 °F 37% 29.68 in 10.0 mi SSE 17.3 mph - N/A   Clear
5:56 PM 95.0 °F 97.4 °F 64.9 °F 37% 29.68 in 10.0 mi SE 18.4 mph - N/A   Clear
6:56 PM 92.8 °F 95.2 °F 64.9 °F 40% 29.68 in 10.0 mi SE 20.7 mph - N/A   Clear
7:56 PM 86.9 °F 91.0 °F 68.9 °F 55% 29.71 in 10.0 mi ESE 20.7 mph 28.8 mph N/A   Clear
8:56 PM 81.9 °F 86.0 °F 70.9 °F 69% 29.74 in 9.0 mi ESE 15.0 mph - N/A   Clear
9:56 PM 79.0 °F - 70.9 °F 76% 29.76 in 9.0 mi ESE 16.1 mph - N/A   Clear
10:56 PM 77.9 °F - 70.9 °F 79% 29.78 in 8.0 mi ESE 12.7 mph - N/A   Clear
11:56 PM 77.9 °F - 72.0 °F 82% 29.79 in 7.0 mi SE 11.5 mph - N/A   Unknown